COSMOS 2251 DEB, 37295

Orbit data source: Space-Track

COSMOS 2251 DEB, 37295 is space debris in LEO originally from a launch on Wed, 16 Jun 1993 UTC launched from the Plesetsk Missile And Space Complex (PKMTR). The debris from Iridium 33, an American commercial communications satellite, has been tracked extensively since its accidental collision with the defunct Russian satellite Cosmos 2251 in 2009. This event, occurring at high speed in low Earth orbit (LEO), generated thousands of pieces of space debris, significantly increasing the risk of further collisions. The Iridium 33 debris cloud has impacted space traffic management and orbital debris mitigation strategies, making it a subject of ongoing study in space situational awareness.

Loading next visibility...
Identifier
37295, 1993-036BJK
Orbit
LEO
Country
Flag of CISCIS
Related business
Manufacturer
Unknown
Mission
Spacecraft
Bus & Motor
Unknown
Mass
Unknown
Launch date (UTC)
1993-06-16 (33 years ago)
Launch vehicle
Unknown
Launch site
Plesetsk Missile And Space Complex (PKMTR)
Object type
Payload
Rocket body
Debris
Shape & HBR
Unknown shape, 0.1 m
Radar Cross Section
Small (<0.1 m²)

Expand to show TLE details & history
Last TLE update: 3 days ago

TLE from 3 days ago
0 COSMOS 2251 DEB
1 37295U 93036BJK 26261.29570287  .00001537  00000-0  27812-3 0  9993
2 37295  74.0031 101.9766 0045211 211.4722 148.3742 14.66650365864015
Epoch: 2026-09-18T07:05Z
TLE epoch observation values (Epoch: 2026-09-18T07:05:48.727Z)
Latitude
-0.00001°
Longitude
-1.69707°
Altitude
701.612 km
Speed
7.491 km/s
True Right ascension
06h 47m 54s
True Declination
0° 00' 00"
Sunlit
Object was in daylight at epoch
Visualization orbit readout
Latitude
Unknown
Longitude
Unknown
Altitude
Unknown
Speed
Unknown
Apparent Right ascension
Unknown
Apparent Declination
Unknown
Sunlit
N/A
Visualization observer readout
Local Sidereal Time
08:07:33
Azimuth
Unknown
Elevation
Unknown
Doppler factor
Unknown
Orbital elements
Apogee altitude
701.237 km
Perigee altitude
637.512 km
Semi-major axis
7,047.512 km
Eccentricity
0.00452
Inclination
74.0031°
RAAN
101.9766°
Arg. of periapsis
211.4722°
True anomaly
148.64456°
Mean anomaly
148.3742°
Eccentric anomaly
148.50951°
Mean motion
3.66851 °/min
Orbital period
98.13 mins
BSTAR
0.00027812

Documentation

Showing up to 5 results
|